Weather History for Wahoo, NE

Change the Weather History Date:

Thursday, October 11, 2012

  Actual Average Record
Temperature  
Mean Temperature 52 °F -  
Max Temperature 64 °F 67 °F 87 °F (1976)
Min Temperature 39 °F 39 °F 22 °F (1987)
Degree Days  
Heating Degree Days 14    
Growing Degree Days 2 (Base 50)    
Moisture  
Dew Point 30 °F    
Average Humidity 47    
Maximum Humidity 70    
Minimum Humidity 29    
Precipitation  
Precipitation 0.00 in - - ()
Sea Level Pressure  
Sea Level Pressure 30.11 in    
Wind  
Wind Speed 10 mph (NE)    
Max Wind Speed 24 mph    
Max Gust Speed 29 mph    
Visibility 10 miles    
Events      
Averages and records for this station are not official NWS values.
T = Trace of Precipitation, MM = Missing Value Source: NWS Daily Summary

Daily Weather History Graph

Daily Weather History Graph

Search for Another Location

Airport:

Trip Planner

Search our weather history database for the weather conditions in past years. The results will help you decide how hot, cold, wet, or windy it might be!

Date:

Astronomy

Oct. 11, 2012 Rise Set
Actual Time 7:34 AM CDT 6:50 PM CDT
Civil Twilight 7:06 AM CDT 7:18 PM CDT
Nautical Twilight 6:34 AM CDT 7:50 PM CDT
Astronomical Twilight 6:02 AM CDT 8:22 PM CDT
Moon 3:11 AM CDT (10/11) 4:30 PM CDT (10/11)
Length of Visible Light 12h 12m
Length of Day
11h 16m
Waning Crescent, 18% of the Moon is Illuminated
Oct 11
Waning Crescent
Oct 15
New
Oct 21
First Quarter
Oct 29
Full
Nov 6
Last Quarter

Hourly Weather History & Observations

Time (CDT) Temp. Windchill Dew Point Humidity Pressure Visibility Wind Dir Wind Speed Gust Speed Precip Events Conditions
12:15 AM 49.1 °F - 27.5 °F 43% 30.03 in 10.0 mi SSW 11.5 mph - N/A   Clear
12:35 AM 48.7 °F - 27.7 °F 44% 30.02 in 10.0 mi South 12.7 mph - N/A   Clear
12:55 AM 47.5 °F - 28.0 °F 47% 30.02 in 10.0 mi South 10.4 mph - N/A   Clear
1:15 AM 47.1 °F - 28.0 °F 48% 30.02 in 10.0 mi South 9.2 mph - N/A   Clear
1:35 AM 45.0 °F 40.1 °F 28.4 °F 52% 30.01 in 10.0 mi South 9.2 mph - N/A   Clear
2:15 AM 48.0 °F - 29.1 °F 48% 30.01 in 10.0 mi South 11.5 mph - N/A   Clear
2:55 AM 46.0 °F 41.9 °F 29.3 °F 52% 30.02 in 10.0 mi South 8.1 mph - N/A   Clear
3:15 AM 46.0 °F 41.9 °F 29.7 °F 53% 30.01 in 10.0 mi South 8.1 mph - N/A   Clear
3:35 AM 45.7 °F 41.0 °F 29.8 °F 54% 30.01 in 10.0 mi South 9.2 mph - N/A   Clear
3:55 AM 46.4 °F 42.4 °F 30.0 °F 53% 30.01 in 10.0 mi South 8.1 mph - N/A   Clear
4:15 AM 46.4 °F 42.4 °F 30.0 °F 53% 30.01 in 10.0 mi South 8.1 mph - N/A   Clear
4:35 AM 47.3 °F - 30.2 °F 52% 30.00 in 10.0 mi South 10.4 mph - N/A   Clear
4:55 AM 47.5 °F - 30.2 °F 51% 30.00 in 10.0 mi SSW 10.4 mph - N/A   Clear
5:15 AM 47.7 °F - 30.4 °F 51% 30.00 in 10.0 mi South 8.1 mph - N/A   Clear
5:35 AM 47.5 °F - 30.7 °F 52% 30.00 in 10.0 mi SSW 6.9 mph - N/A   Clear
5:55 AM 45.5 °F 41.8 °F 30.7 °F 56% 30.00 in 10.0 mi South 6.9 mph - N/A   Clear
6:15 AM 43.5 °F 38.3 °F 30.9 °F 61% 29.99 in 10.0 mi South 9.2 mph - N/A   Clear
6:35 AM 46.4 °F 41.9 °F 31.3 °F 56% 30.00 in 10.0 mi SSW 9.2 mph - N/A   Clear
6:55 AM 46.8 °F - 31.8 °F 56% 30.00 in 10.0 mi South 4.6 mph - N/A   Clear
7:15 AM 41.5 °F 39.6 °F 31.1 °F 66% 30.01 in 10.0 mi SSE 3.5 mph - N/A   Clear
7:35 AM 41.4 °F 38.4 °F 30.6 °F 65% 30.01 in 10.0 mi SSE 4.6 mph - N/A   Clear
7:55 AM 39.6 °F 34.0 °F 30.4 °F 70% 30.01 in 10.0 mi South 8.1 mph - N/A   Clear
8:15 AM 41.7 °F 38.8 °F 32.0 °F 68% 30.01 in 10.0 mi South 4.6 mph - N/A   Clear
8:35 AM 46.6 °F - 32.9 °F 59% 30.04 in 10.0 mi Calm Calm - N/A   Clear
8:55 AM 48.4 °F - 33.3 °F 56% 30.05 in 10.0 mi WSW 4.6 mph - N/A   Clear
9:15 AM 49.3 °F - 33.4 °F 54% 30.05 in 10.0 mi Calm Calm - N/A   Clear
9:35 AM 50.2 °F - 33.3 °F 52% 30.05 in 10.0 mi Calm Calm - N/A   Clear
9:55 AM 51.4 °F - 34.0 °F 51% 30.06 in 10.0 mi Calm Calm - N/A   Clear
10:15 AM 53.1 °F - 34.3 °F 49% 30.07 in 10.0 mi Calm Calm - N/A   Clear
10:35 AM 54.3 °F - 34.0 °F 46% 30.07 in 10.0 mi Calm Calm - N/A   Clear
10:55 AM 55.4 °F - 34.3 °F 45% 30.08 in 10.0 mi Calm Calm - N/A   Clear
11:15 AM 59.2 °F - 34.0 °F 39% 30.07 in 10.0 mi WNW 9.2 mph - N/A   Clear
11:35 AM 60.8 °F - 32.7 °F 35% 30.09 in 10.0 mi WNW 9.2 mph - N/A   Clear
11:55 AM 61.5 °F - 31.6 °F 33% 30.08 in 10.0 mi North 10.4 mph 16.1 mph N/A   Clear
12:15 PM 61.5 °F - 31.5 °F 32% 30.07 in 10.0 mi NNE 9.2 mph - N/A   Clear
12:55 PM 62.4 °F - 31.5 °F 31% 30.09 in 10.0 mi North 11.5 mph - N/A   Clear
1:15 PM 63.1 °F - 31.6 °F 31% 30.10 in 10.0 mi North 8.1 mph - N/A   Clear
1:35 PM 63.5 °F - 31.8 °F 31% 30.09 in 10.0 mi NNE 11.5 mph - N/A   Clear
1:55 PM 63.9 °F - 31.6 °F 30% 30.09 in 10.0 mi North 12.7 mph 16.1 mph N/A   Clear
2:15 PM 64.2 °F - 31.5 °F 29% 30.10 in 10.0 mi North 17.3 mph 24.2 mph N/A   Clear
2:35 PM 63.5 °F - 30.7 °F 29% 30.10 in 10.0 mi North 24.2 mph 28.8 mph N/A   Clear
2:55 PM 61.9 °F - 30.9 °F 31% 30.10 in 10.0 mi North 20.7 mph 26.5 mph N/A   Clear
3:15 PM 61.3 °F - 31.1 °F 32% 30.11 in 10.0 mi NNE 20.7 mph 28.8 mph N/A   Clear
3:55 PM 59.5 °F - 31.3 °F 34% 30.13 in 10.0 mi NNE 18.4 mph 28.8 mph N/A   Clear
4:15 PM 59.0 °F - 31.8 °F 36% 30.13 in 10.0 mi NNE 20.7 mph 27.6 mph N/A   Clear
4:35 PM 57.4 °F - 32.0 °F 38% 30.15 in 10.0 mi NNE 20.7 mph - N/A   Clear
5:15 PM 57.2 °F - 32.0 °F 38% 30.16 in 10.0 mi NE 24.2 mph - N/A   Clear
5:35 PM 55.2 °F - 31.1 °F 40% 30.17 in 10.0 mi NE 23.0 mph 27.6 mph N/A   Clear
5:55 PM 54.9 °F - 31.1 °F 40% 30.17 in 10.0 mi NNE 16.1 mph - N/A   Clear
6:15 PM 55.0 °F - 30.4 °F 39% 30.19 in 10.0 mi NNE 17.3 mph - N/A   Clear
6:35 PM 53.6 °F - 29.1 °F 39% 30.20 in 10.0 mi NNE 16.1 mph 25.3 mph N/A   Clear
6:55 PM 51.8 °F - 29.1 °F 42% 30.22 in 10.0 mi NNE 17.3 mph 21.9 mph N/A   Clear
7:15 PM 50.9 °F - 27.9 °F 41% 30.23 in 10.0 mi NNE 13.8 mph 20.7 mph N/A   Clear
7:35 PM 49.3 °F - 27.7 °F 43% 30.25 in 10.0 mi NNE 10.4 mph - N/A   Scattered Clouds
8:15 PM 46.8 °F - 26.6 °F 45% 30.27 in 10.0 mi North 8.1 mph - N/A   Scattered Clouds
8:35 PM 46.2 °F 41.2 °F 26.6 °F 46% 30.29 in 10.0 mi North 10.4 mph - N/A   Scattered Clouds
8:55 PM 45.5 °F 40.8 °F 27.0 °F 48% 30.29 in 10.0 mi North 9.2 mph - N/A   Clear
9:15 PM 44.6 °F 39.7 °F 26.6 °F 49% 30.30 in 10.0 mi North 9.2 mph - N/A   Clear
9:55 PM 42.8 °F 38.0 °F 26.8 °F 53% 30.31 in 10.0 mi North 8.1 mph - N/A   Clear
10:15 PM 43.7 °F 38.1 °F 27.5 °F 53% 30.32 in 10.0 mi NNE 10.4 mph - N/A   Scattered Clouds
10:55 PM 42.8 °F 38.6 °F 27.5 °F 55% 30.34 in 10.0 mi NNE 6.9 mph - N/A   Scattered Clouds
11:15 PM 42.8 °F 37.5 °F 27.7 °F 55% 30.35 in 10.0 mi NNE 9.2 mph - N/A   Scattered Clouds
11:35 PM 42.8 °F 37.5 °F 28.0 °F 56% 30.35 in 10.0 mi NNE 9.2 mph - N/A   Mostly Cloudy
11:55 PM 42.8 °F 37.0 °F 27.5 °F 55% 30.35 in 10.0 mi NNE 10.4 mph - N/A   Overcast